When you browse on this site, cookies collect data to enhance your experience and personalize the content and advertising you see.
Visit our Privacy Policy to learn more. By continuing to use the site, you agree to this use of cookies and data.
  • In Hungary
  • List of Countries
  • For 7 days
  • Water Temperature
  • Satellite Maps
  • Weather Map
  • News
  • Weather Widgets
  • user-avatar
    Login

    Hourly Weather Ciudad Bolívar

    Today, 16 January, Wednesday

    Time Temperature Precipitation Wind Pressure Humidity
    00:00 +27°C° 0 mm 5 mps 754 mmHg 72%
    01:00 +27°C° 0 mm 5 mps 754 mmHg 76%
    02:00 +26°C° 0 mm 4 mps 754 mmHg 79%
    03:00 +26°C° 0 mm 4 mps 754 mmHg 81%
    04:00 +26°C° 0 mm 4 mps 754 mmHg 83%
    05:00 +25°C° 0 mm 3 mps 754 mmHg 85%
    06:00 +26°C° 0 mm 4 mps 755 mmHg 82%
    07:00 +26°C° 0 mm 4 mps 755 mmHg 80%
    08:00 +27°C° 0 mm 4 mps 755 mmHg 77%
    09:00 +29°C° 0 mm 4 mps 755 mmHg 69%
    10:00 +30°C° 0 mm 4 mps 756 mmHg 61%
    11:00 +33°C° 0 mm 4 mps 756 mmHg 52%
    12:00 +34°C° 0 mm 4 mps 755 mmHg 50%
    13:00 +34°C° 0 mm 4 mps 754 mmHg 47%
    14:00 +35°C° 0 mm 3 mps 753 mmHg 45%
    15:00 +35°C° 0 mm 4 mps 753 mmHg 45%
    16:00 +35°C° 0 mm 4 mps 752 mmHg 45%
    17:00 +35°C° 0 mm 4 mps 752 mmHg 46%
    18:00 +33°C° 0 mm 4 mps 752 mmHg 53%
    19:00 +32°C° 0 mm 5 mps 753 mmHg 59%
    20:00 +29°C° 0 mm 5 mps 753 mmHg 66%
    21:00 +29°C° 0 mm 5 mps 753 mmHg 69%
    22:00 +28°C° 0 mm 5 mps 754 mmHg 71%
    23:00 +28°C° 0 mm 5 mps 754 mmHg 74%

    Tomorrow, 17 January, Thursday

    Time Temperature Precipitation Wind Pressure Humidity
    00:00 +27°C° 0 mm 5 mps 754 mmHg 76%
    01:00 +27°C° 0 mm 5 mps 754 mmHg 78%
    02:00 +26°C° 0 mm 4 mps 754 mmHg 81%
    03:00 +26°C° 0 mm 4 mps 754 mmHg 82%
    04:00 +26°C° 0 mm 4 mps 754 mmHg 84%
    05:00 +26°C° 0 mm 3 mps 754 mmHg 85%
    06:00 +26°C° 0 mm 4 mps 754 mmHg 82%
    07:00 +26°C° 0 mm 4 mps 755 mmHg 80%
    08:00 +27°C° 0 mm 4 mps 755 mmHg 77%
    09:00 +29°C° 0 mm 4 mps 755 mmHg 70%
    10:00 +30°C° 0 mm 4 mps 756 mmHg 62%
    11:00 +33°C° 0 mm 4 mps 756 mmHg 54%
    12:00 +34°C° 0 mm 4 mps 755 mmHg 52%
    13:00 +34°C° 0 mm 4 mps 754 mmHg 49%
    14:00 +35°C° 0 mm 4 mps 753 mmHg 47%
    15:00 +35°C° 0 mm 4 mps 752 mmHg 47%
    16:00 +34°C° 0 mm 5 mps 752 mmHg 48%
    17:00 +34°C° 0 mm 5 mps 751 mmHg 48%
    18:00 +33°C° 0 mm 5 mps 752 mmHg 52%
    19:00 +32°C° 0 mm 5 mps 752 mmHg 56%
    20:00 +30°C° 0 mm 5 mps 753 mmHg 60%
    21:00 +29°C° 0 mm 5 mps 753 mmHg 63%
    22:00 +29°C° 0 mm 5 mps 754 mmHg 66%
    23:00 +28°C° 0 mm 4 mps 754 mmHg 69%

    Day after tomorrow, 18 January, Friday

    Time Temperature Precipitation Wind Pressure Humidity
    00:00 +27°C° 0 mm 4 mps 754 mmHg 72%
    01:00 +27°C° 0 mm 4 mps 754 mmHg 75%
    02:00 +26°C° 0 mm 4 mps 753 mmHg 77%
    03:00 +26°C° 0 mm 4 mps 753 mmHg 80%
    04:00 +26°C° 0 mm 3 mps 753 mmHg 82%
    05:00 +25°C° 0 mm 3 mps 753 mmHg 84%
    06:00 +26°C° 0 mm 3 mps 753 mmHg 81%
    07:00 +26°C° 0 mm 4 mps 754 mmHg 79%
    08:00 +27°C° 0 mm 4 mps 754 mmHg 76%
    09:00 +29°C° 0 mm 4 mps 754 mmHg 68%
    10:00 +30°C° 0 mm 4 mps 755 mmHg 60%
    11:00 +33°C° 0 mm 4 mps 755 mmHg 51%
    12:00 +34°C° 0 mm 4 mps 754 mmHg 48%
    13:00 +35°C° 0 mm 4 mps 752 mmHg 46%
    14:00 +35°C° 0 mm 4 mps 751 mmHg 43%
    15:00 +35°C° 0 mm 4 mps 751 mmHg 43%
    16:00 +35°C° 0 mm 4 mps 750 mmHg 43%
    17:00 +35°C° 0 mm 5 mps 750 mmHg 43%
    18:00 +34°C° 0 mm 5 mps 751 mmHg 48%
    19:00 +33°C° 0 mm 6 mps 751 mmHg 53%
    20:00 +30°C° 0 mm 6 mps 752 mmHg 59%
    21:00 +30°C° 0 mm 6 mps 753 mmHg 63%
    22:00 +29°C° 0 mm 6 mps 753 mmHg 66%
    23:00 +28°C° 0 mm 6 mps 753 mmHg 70%

    19 January, Saturday

    Time Temperature Precipitation Wind Pressure Humidity
    00:00 +27°C° 0 mm 6 mps 753 mmHg 72%
    01:00 +27°C° 0 mm 5 mps 753 mmHg 75%
    02:00 +27°C° 0 mm 5 mps 753 mmHg 77%
    03:00 +26°C° 0 mm 4 mps 753 mmHg 79%
    04:00 +26°C° 0 mm 4 mps 753 mmHg 81%
    05:00 +26°C° 0 mm 3 mps 753 mmHg 82%
    06:00 +26°C° 0 mm 3 mps 753 mmHg 80%
    07:00 +27°C° 0 mm 4 mps 754 mmHg 77%
    08:00 +27°C° 0 mm 4 mps 754 mmHg 74%
    09:00 +29°C° 0 mm 4 mps 755 mmHg 65%
    10:00 +32°C° 0 mm 5 mps 755 mmHg 56%
    11:00 +34°C° 0 mm 5 mps 755 mmHg 46%
    12:00 +35°C° 0 mm 5 mps 754 mmHg 44%
    13:00 +36°C° 0 mm 5 mps 752 mmHg 41%
    14:00 +37°C° 0 mm 5 mps 751 mmHg 38%
    15:00 +37°C° 0 mm 5 mps 751 mmHg 38%
    16:00 +36°C° 0 mm 5 mps 750 mmHg 39%
    17:00 +36°C° 0 mm 5 mps 750 mmHg 39%
    18:00 +35°C° 0 mm 5 mps 750 mmHg 44%
    19:00 +34°C° 0 mm 5 mps 751 mmHg 49%
    20:00 +32°C° 0 mm 5 mps 752 mmHg 54%
    21:00 +30°C° 0 mm 5 mps 752 mmHg 58%
    22:00 +30°C° 0 mm 6 mps 753 mmHg 62%
    23:00 +29°C° 0 mm 6 mps 753 mmHg 67%

    20 January, Sunday

    Time Temperature Precipitation Wind Pressure Humidity
    00:00 +28°C° 0 mm 6 mps 753 mmHg 69%
    01:00 +27°C° 0 mm 5 mps 753 mmHg 72%
    02:00 +27°C° 0 mm 5 mps 753 mmHg 75%
    03:00 +26°C° 0 mm 4 mps 753 mmHg 77%
    04:00 +26°C° 0 mm 4 mps 753 mmHg 80%
    05:00 +26°C° 0 mm 4 mps 753 mmHg 82%
    06:00 +26°C° 0 mm 4 mps 753 mmHg 79%
    07:00 +26°C° 0 mm 5 mps 754 mmHg 77%
    08:00 +27°C° 0 mm 5 mps 755 mmHg 74%
    09:00 +29°C° 0 mm 5 mps 755 mmHg 66%
    10:00 +32°C° 0 mm 5 mps 755 mmHg 57%
    11:00 +34°C° 0 mm 5 mps 755 mmHg 48%
    12:00 +35°C° 0 mm 5 mps 754 mmHg 43%
    13:00 +37°C° 0 mm 5 mps 753 mmHg 38%
    14:00 +39°C° 0 mm 5 mps 751 mmHg 33%
    15:00 +39°C° 0 mm 5 mps 751 mmHg 33%
    16:00 +37°C° 0 mm 5 mps 750 mmHg 34%
    17:00 +37°C° 0 mm 5 mps 750 mmHg 34%
    18:00 +36°C° 0 mm 5 mps 750 mmHg 39%
    19:00 +34°C° 0 mm 6 mps 751 mmHg 45%
    20:00 +33°C° 0 mm 6 mps 752 mmHg 50%
    21:00 +32°C° 0 mm 6 mps 752 mmHg 54%
    22:00 +30°C° 0 mm 6 mps 752 mmHg 59%
    23:00 +29°C° 0 mm 6 mps 753 mmHg 63%

    21 January, Monday

    Time Temperature Precipitation Wind Pressure Humidity
    00:00 +28°C° 0 mm 6 mps 753 mmHg 67%
    01:00 +27°C° 0 mm 5 mps 753 mmHg 71%
    02:00 +27°C° 0 mm 5 mps 753 mmHg 74%
    03:00 +26°C° 0 mm 5 mps 753 mmHg 77%
    04:00 +26°C° 0 mm 5 mps 753 mmHg 79%
    05:00 +26°C° 0 mm 4 mps 753 mmHg 81%
    06:00 +26°C° 0 mm 4 mps 753 mmHg 79%
    07:00 +27°C° 0 mm 4 mps 754 mmHg 77%
    08:00 +27°C° 0 mm 4 mps 755 mmHg 74%
    09:00 +29°C° 0 mm 4 mps 755 mmHg 66%
    10:00 +32°C° 0 mm 4 mps 755 mmHg 58%
    11:00 +34°C° 0 mm 4 mps 755 mmHg 50%
    12:00 +35°C° 0 mm 4 mps 754 mmHg 46%
    13:00 +36°C° 0 mm 4 mps 753 mmHg 43%
    14:00 +37°C° 0 mm 4 mps 752 mmHg 40%
    15:00 +36°C° 0 mm 4 mps 751 mmHg 41%
    16:00 +36°C° 0 mm 5 mps 751 mmHg 42%
    17:00 +36°C° 0 mm 5 mps 750 mmHg 43%
    18:00 +35°C° 0 mm 4 mps 751 mmHg 45%
    19:00 +33°C° 0 mm 4 mps 751 mmHg 47%
    20:00 +31°C° 0 mm 3 mps 752 mmHg 50%
    21:00 +32°C° 0 mm 4 mps 752 mmHg 52%
    22:00 +30°C° 0 mm 5 mps 753 mmHg 55%
    23:00 +29°C° 0 mm 6 mps 753 mmHg 58%
    Show more